Location: Moglia
(45.0167°N, 11.2667°E)
Time: 10:14:12
(UTC+00:00)

Daily predictions for brighter satellites

Satellite Brightness Start Highest point End
(mag) Time Altitude Azimuth Time Altitude Azimuth Time Altitude Azimuth
Spot 1 4.4 16:01:16 10° NNE 16:05:58 73° ESE 16:10:54 10° S
Cosmos 1464 Rocket 4.1 16:02:40 10° S 16:09:03 88° E 16:15:28 10° N
Cosmos 1340 Rocket 2.9 16:06:54 10° N 16:10:56 57° ENE 16:14:56 10° SSE
SJ 16-02 3.0 16:07:17 10° NW 16:11:22 40° WSW 16:15:27 10° S
CZ-4C R/B 4.1 16:07:42 10° N 16:11:29 51° WNW 16:15:04 10° SSW
ISS -2.6 16:11:05 10° NW 16:14:06 29° N 16:17:09 10° ENE
Cosmos 1606 3.4 16:12:10 10° SSW 16:15:51 57° W 16:19:36 10° N
CZ-2D R/B 4.3 16:13:11 10° ESE 16:16:20 25° ENE 16:19:29 10° NNE
Lacrosse 5 rocket 3.1 16:15:55 10° NNW 16:18:21 16° NNE 16:20:50 10° NE
Nadezhda 4 Rocket 4.0 16:12:24 10° N 16:18:45 80° E 16:25:05 10° S
CZ-4B R/B 4.0 16:15:00 10° ESE 16:19:24 26° ENE 16:23:45 10° N
Cosmos 2360 4.4 16:15:55 10° NNW 16:21:31 50° ENE 16:27:02 10° SE
Cosmos 540 Rocket 4.0 16:18:18 10° S 16:22:59 38° ESE 16:27:41 10° NE
Meteor 1-20 Rocket 4.3 16:17:14 10° N 16:23:01 61° ENE 16:28:49 10° SSE
CZ-2C R/B 3.7 16:19:54 10° NE 16:23:52 22° E 16:27:48 10° SE
Cosmos 1500 Rocket 3.5 16:19:42 10° N 16:24:09 68° E 16:28:31 10° SSE
CZ-4C R/B 3.5 16:18:16 10° NNW 16:24:35 35° NE 16:31:55 10° E
CZ-4B R/B 3.1 16:22:20 10° S 16:26:26 73° WSW 16:30:20 10° NNW
SMAP 3.0 16:23:29 10° SSE 16:28:06 68° ENE 16:32:44 10° N
Cosmos 1500 4.1 16:26:25 10° NNE 16:29:40 27° ENE 16:32:51 10° SE
USA 305 4.3 16:26:19 10° WNW 16:29:50 25° N 16:32:56 12° NE
CZ-2C R/B 3.4 16:25:20 10° S 16:30:15 67° WSW 16:35:02 10° NNW
Cosmos 468 Rocket 3.9 16:27:29 10° SSW 16:32:37 78° ESE 16:37:50 10° NNE
Cosmos 1092 Rocket 4.0 16:27:12 10° N 16:33:32 62° E 16:39:46 10° SSE
Cosmos 1898 Rocket 3.4 16:29:58 10° NNW 16:35:15 72° ENE 16:40:26 10° SSE
Cosmos 1805 Rocket 3.6 16:31:27 10° N 16:35:42 52° ENE 16:39:56 10° SSE
Cosmos 44 4.4 16:31:11 10° NW 16:35:43 46° WSW 16:39:59 10° S
Cosmos 1933 3.4 16:31:53 10° S 16:35:52 58° E 16:39:50 10° NNE
Sich 1 3.4 16:32:16 10° N 16:36:21 41° ENE 16:40:25 10° SSE
Cosmos 1428 Rocket 4.5 16:32:11 10° N 16:38:14 58° ENE 16:44:17 10° SSE
Cosmos 1842 Rocket 4.5 16:34:15 10° SSW 16:38:35 52° WNW 16:42:59 10° N
Cosmos 2221 3.7 16:34:39 10° SSW 16:38:43 43° WNW 16:42:51 10° N
PSLV R/B 3.7 16:37:53 10° SSE 16:41:27 53° ENE 16:45:06 10° N
deb Chang Zheng 4 4.0 16:47:16 10° SE 16:51:13 37° ENE 16:55:12 10° N
AQUARIUS 4.2 16:47:14 10° SSE 16:51:43 83° WSW 16:56:14 10° NNW
Cosmos 2084 3.9 16:47:40 10° NW 16:51:58 67° SW 16:56:25 10° SSE
H-2A R/B 2.0 16:48:57 10° SSE 16:54:04 62° ENE 16:59:04 10° N
Cosmos 1627 Rocket 4.4 16:48:02 10° N 16:54:14 75° E 17:00:20 10° SSE
NOSS 2-2 (C) 4.4 16:53:24 10° NNW 16:58:31 59° NE 17:05:38 10° SE
Cosmos 1666 3.3 16:55:59 10° N 16:59:21 32° ENE 17:02:42 10° SE
Cosmos 2322 Rocket 3.7 16:56:41 10° N 17:00:05 16° NE 17:00:05 16° NE
Cosmos 2279 Rocket 4.2 16:55:31 10° SSE 17:01:25 48° E 17:07:20 10° NNE
USA 306 4.4 16:58:40 10° NW 17:02:09 24° N 17:03:44 19° NNE
USA 267 3.7 16:58:13 15° NE 17:03:35 55° NNW 17:09:55 10° WSW
Cosmos 1697 Rocket 2.9 16:58:11 10° NNW 17:03:49 76° WSW 17:09:24 10° SSE
Cosmos 2369 3.6 17:01:27 10° NNW 17:07:13 78° ENE 17:12:56 10° SSE
Cosmos 1763 Rocket 4.2 17:02:39 10° SW 17:07:34 51° WNW 17:12:34 10° NNE
Cosmos 1980 Rocket 2.1 17:02:05 10° NNW 17:07:44 63° ENE 17:13:18 10° SE
Cosmos 1939 Rocket 4.4 17:04:05 10° SSW 17:07:58 39° W 17:11:50 10° NNW
COSMO-SKYMED 1 2.7 17:05:08 16° NNE 17:08:27 50° E 17:12:39 10° S
MOS 1-B Rocket 4.0 17:02:47 10° NNE 17:08:41 71° ESE 17:15:22 10° S
Meteor 1-5 Rocket 4.4 17:03:59 10° N 17:09:51 53° ENE 17:15:36 10° SSE
SL-24 R/B - RUBIN 2 3.5 17:08:05 10° NNW 17:12:37 64° NE 17:15:48 17° SE
Cosmos 841 Rocket 3.4 17:07:46 10° SSW 17:12:56 81° ESE 17:17:15 15° NNE
Meteor 2-21 4.4 17:07:13 10° N 17:13:20 89° W 17:19:23 10° S
Cosmos 1812 2.7 17:10:46 10° S 17:14:32 59° E 17:16:31 26° NNE
Cosmos 1937 Rocket 3.8 17:11:27 10° NNW 17:16:46 71° WSW 17:22:02 10° S
Cosmos 1634 Rocket 4.1 17:10:37 10° S 17:16:57 85° W 17:23:20 10° N
SL-16 R/B 3.2 17:12:55 10° N 17:17:26 25° NE 17:17:26 25° NE
YAOGAN 1 4.4 17:22:20 16° NNE 17:22:20 16° NNE 17:23:24 10° N
Cosmos 1633 Rocket 3.1 17:15:22 10° N 17:19:40 54° ENE 17:23:57 10° SSE
Cosmos 2082 Rocket 2.1 17:14:51 10° SSW 17:20:31 76° ESE 17:24:27 21° NNE
USA 307 4.3 17:17:02 10° NW 17:20:34 24° N 17:21:20 23° NNE
USA 229 4.5 17:14:40 10° NW 17:21:56 61° WSW 17:29:36 10° SSE
Cosmos 2026 Rocket 4.3 17:19:04 10° NNW 17:25:09 67° W 17:31:08 10° S
Okean O Rocket 1.5 17:24:30 10° SSE 17:28:57 77° ENE 17:33:25 10° N
USA 276 4.5 17:28:16 10° W 17:30:44 22° SW 17:32:47 12° S
Cosmos 372 Rocket 4.0 17:25:51 10° NNW 17:31:06 82° WSW 17:36:21 10° SSE
Cosmos 2278 3.6 17:25:58 10° NNW 17:31:42 70° ENE 17:37:21 10° SSE
SKYMED 3 4.5 17:29:31 19° NNE 17:32:35 90° NNW 17:36:56 10° SSW
Cosmos 1151 Rocket 2.9 17:31:07 10° S 17:35:26 88° W 17:38:08 23° N
Cosmos 1782 3.9 17:31:45 10° SSW 17:35:35 43° WNW 17:39:25 10° N
USA 234 4.0 17:30:46 10° SSE 17:37:06 51° SW 17:43:26 10° WNW
Cosmos 1655 Rocket 4.1 17:31:29 10° N 17:37:45 53° ENE 17:43:56 10° SSE
COSMOS 2406 4.0 17:32:46 10° SW 17:38:22 51° WNW 17:43:05 14° NNE
COSMOS 2455 3.0 17:34:13 10° SW 17:40:12 72° WNW 17:43:55 25° NNE
Meteor 2-15 4.4 17:35:21 10° S 17:41:20 60° E 17:45:42 19° NNE
ARGOS 3.2 17:37:12 10° SSE 17:42:37 83° WSW 17:48:04 10° NNW
USA 308 4.3 17:39:37 10° NW 17:42:51 25° N 17:42:51 25° N
Cosmos 1666 Rocket 3.9 17:40:07 10° NNW 17:44:32 67° W 17:48:54 10° S
Cosmos 1833 Rocket 4.0 17:39:55 10° WSW 17:45:03 36° NW 17:49:48 12° N
Cosmos 2180 Rocket 4.4 17:41:25 10° S 17:47:47 83° E 17:54:06 10° N
Meteor 2-6 Rocket 4.1 17:43:47 10° S 17:49:34 83° E 17:53:26 21° NNE
Cosmos 1328 Rocket 3.5 17:45:20 10° S 17:49:47 88° WNW 17:50:52 51° N
ISS -2.6 17:47:52 10° WNW 17:50:10 40° WNW 17:50:10 40° WNW
DMSP B5D2-2 4.3 17:57:01 51° SE 17:57:01 51° SE 18:01:17 10° S
SKYMED 2 4.3 17:53:44 20° N 17:56:30 50° WNW 18:00:42 10° SSW
Lacrosse 5 rocket 2.9 17:54:32 10° NW 17:56:30 25° NNW 17:56:30 25° NNW
NOAA 15 4.4 17:53:59 10° SSE 17:59:16 78° ENE 18:04:34 10° NNW
CZ-4B R/B 4.1 17:54:27 10° S 17:59:41 48° W 18:04:53 10° NNW
Cosmos 1570 Rocket 4.1 17:55:08 10° SSW 18:00:23 75° WNW 18:02:05 43° N
Landsat 5 3.8 18:00:26 57° NW 18:00:53 62° WNW 18:04:50 10° SSW
Meteor 2-8 Rocket 4.4 17:54:48 10° S 18:00:57 82° W 18:07:10 10° N
Cosmos 2298 Rocket 4.3 17:56:15 10° NNW 18:00:27 50° NNE 18:00:27 50° NNE
ATLAS CENTAUR R/B 3.4 17:55:00 10° WSW 18:02:19 37° NW 18:03:22 32° N
SL-08 RB Rocket 3.9 17:57:52 10° S 18:02:31 72° WSW 18:07:08 10° NNW
GEOS 3 Rocket 3.4 18:02:08 72° E 18:02:31 77° NE 18:07:44 10° NW
CZ-2C R/B 3.9 18:02:47 10° S 18:02:58 10° S 18:02:58 10° S
CZ-2C R/B 3.3 17:59:26 10° N 18:04:28 51° WNW 18:09:26 10° SW
DMSP 5D-2 F-14 4.5 18:02:11 34° SSE 18:04:38 80° ENE 18:10:06 10° NNW
Meteor 1-10 Rocket 4.1 18:01:49 10° S 18:07:38 85° E 18:09:02 54° NNE
Meteor 1-11 Rocket 4.0 18:03:31 10° N 18:07:51 53° NNE 18:07:51 53° NNE
Cosmos 1818 3.6 18:04:02 10° NNW 18:09:03 69° N 18:09:03 69° N
Cosmos 44 Rocket 4.0 18:08:21 10° NNW 18:11:47 44° NNW 18:11:47 44° NNW
CZ-4C R/B 3.1 18:06:29 10° NW 18:13:50 77° SW 18:20:10 20° SSE
Cosmos 2360 Rocket 4.1 18:20:42 10° NNW 18:22:13 18° N 18:22:13 18° N
Cosmos 2322 Rocket 3.7 18:39:29 10° NNW 18:41:55 26° NNW 18:41:55 26° NNW
USA 267 4.3 18:45:34 32° N 18:45:49 32° N 18:51:28 10° WNW
SL-16 R/B 3.7 18:56:30 10° NNW 18:59:20 30° NW 18:59:20 30° NW
Cosmos 2082 Rocket 4.2 19:00:59 10° W 19:05:15 21° NW 19:06:21 20° NNW
